Regional Weather Roundup
Issued by NWS Sterling, VA

Home | Current Version | Previous Version | Text Only | Print | Product List | Glossary Off
Versions: 1 2 3 4 5 6 7 8 9 10 11 12 13 14 15 16 17 18 19 20 21 22 23 24 25 26 27

000
ASUS41 KLWX 301910
RWRLWX

REGIONAL WEATHER ROUNDUP
NATIONAL WEATHER SERVICE BALTIMORE MD/WASHINGTON DC
300 PM EDT MON MAY 30 2016

Note: "FAIR" indicates few or no clouds below 12,000 feet
with no significant weather and/or obstructions to visibility.
 TC=TEMPERATURE CELSIUS

 * =Non NWS site. Station does not report precipitation (e.g. rain,
    snow, etc.), thunder, or fog.

DCZ001-MDZ009-015-VAZ040>042-051-053>054-302000-
WASHINGTON METRO

CITY           SKY/WX    TMP DP  RH WIND       PRES   REMARKS
WASHINGTON NAT CLOUDY    79  69  71 S7        29.97F
DULLES         CLOUDY    83  66  56 E8        29.97F
ANDREWS AFB    CLOUDY    77  68  73 SE7       29.97S
FT BELVOIR     FAIR      78  67  69 S5        29.97F
QUANTICO       CLOUDY    76  70  82 S7        29.99S
COLLEGE PARK*  CLOUDY    79  64  61 E3        29.96F
LEESBURG*      FAIR      84  68  58 SW7       29.98F
MANASSAS*      SUNNY     82  68  61 CALM      29.97F

$$

MDZ006>007-011-014-302000-
BALTIMORE METRO

CITY           SKY/WX    TMP DP  RH WIND       PRES   REMARKS
BWI AIRPORT    CLOUDY    80  66  62 SE9       29.96F
MD SCIENCE CTR   N/A     78  62  57 MISG      29.96F
MARTIN STATE   PTSUNNY   79  70  73 S7        29.99S
ANNAPOLIS      PTSUNNY   74  66  76 SE7       29.98S
FORT MEADE*    CLOUDY    79  66  65 SE5       29.99F

$$

MDZ012-015-019>023-302000-
MARYLAND EASTERN SHORE

CITY           SKY/WX    TMP DP  RH WIND       PRES   REMARKS
OCEAN CITY     LGT RAIN  68  67  96 CALM      30.00F FOG
SALISBURY      LGT RAIN  73  71  93 S6        30.00S
BAY BRIDGE AP* PTSUNNY   75  68  78 SE6       29.98S
CAMBRIDGE*     CLOUDY    72  70  94 S5        29.99S
EASTON*        CLOUDY    75  75 100 CALM      30.02F FOG

$$

MDZ017>025-302000-
SOUTHERN MARYLAND

CITY           SKY/WX    TMP DP  RH WIND       PRES   REMARKS
PATUXENT RIVER CLOUDY    72  68  87 SE7       29.99S
ST INIGOES     LGT RAIN  72  70  93 VRB3      29.98S
LEONARDTOWN*   CLOUDY    72  68  88 SE5       30.00S

$$

MDZ003>005-302000-
NORTH CENTRAL MARYLAND

CITY           SKY/WX    TMP DP  RH WIND       PRES   REMARKS
FREDERICK*     SUNNY     84  68  58 CALM      29.99F
HAGERSTOWN APT MOSUNNY   83  61  47 S6        29.96F
WESTMINSTER*   MOSUNNY   84  81  89 CALM      29.98F HX  98

$$

MDZ501>502-302000-
WESTERN MARYLAND

CITY           SKY/WX    TMP DP  RH WIND       PRES   REMARKS
OAKLAND*       CLOUDY    73  59  60 W6        30.07F
CUMBERLAND*    CLOUDY    86  66  51 S7        29.99F

$$

VAZ025>031-302000-
SHENANDOAH VALLEY

CITY           SKY/WX    TMP DP  RH WIND       PRES   REMARKS
WINCHESTER*    FAIR      82  61  47 CALM      29.97F
FRONT ROYAL*   FAIR      81  64  57 CALM      29.97F
LURAY*         FAIR      82  59  44 N3        29.98F
NEW MARKET*    FAIR      82  66  58 CALM      29.96F
STAUNTON*      FAIR      80  60  50 CALM      30.01F
WAYNESBORO*    CLOUDY    78  64  63 SE8       30.01F

$$

WVZ021-048>050-054>055-302000-
EASTERN WEST VIRGINIA PANHANDLE

CITY           SKY/WX    TMP DP  RH WIND       PRES   REMARKS
MARTINSBURG    FAIR      82  61  48 VRB7      29.96F
PETERSBURG*    PTSUNNY   83  64  53 CALM      29.97F

$$

VAZ036>039-050-302000-
CENTRAL FOOTHILLS

CITY           SKY/WX    TMP DP  RH WIND       PRES   REMARKS
CHARLOTTESVILL PTSUNNY   81  64  56 E3        29.98F
CULPEPER*      FAIR      83  69  62 CALM      29.98F
ORANGE*        PTSUNNY   81  68  65 CALM      30.00F
GORDONSVILLE*  MOCLDY    79  67  67 CALM      29.97F
WARRENTON*     FAIR      82  63  52 CALM      29.97F

$$

VAZ055>057-302000-
NORTH AND CENTRAL PIEDMONT

CITY           SKY/WX    TMP DP  RH WIND       PRES   REMARKS
FREDERICKSBRG* PTSUNNY   77  70  79 SE3       29.97F
STAFFORD*      CLOUDY    77  69  74 SE5       30.02S

$$

NCZ024-NYZ072-PAZ021-071-VAZ022-071-302000-
OTHER REGIONAL OBSERVATIONS

CITY           SKY/WX    TMP DP  RH WIND       PRES   REMARKS
NEW YORK CITY  PTSUNNY   79  67  66 W6        29.97F
PHILADELPHIA   CLOUDY    78  65  63 S9        29.97F
PITTSBURGH     PTSUNNY   81  58  45 NW12      30.01F
ROANOKE        PTSUNNY   82  62  50 E7        30.01F
RICHMOND       RAIN      74  71  91 N5        29.98S FOG
RALEIGH        CLOUDY    83  70  64 N10       29.94F

$$

ANZ530>537-302000-
MARINE OBSERVATIONS

STATION/POSITION TIME  TEMP    WIND        PRES
                       AIR SEA DIR/SP/G
                 (UTC) (F)     (DEG/KT/KT) (MB)
THOMAS PT LIGHT  1900   71 71  190/  5/  5 1016.6F
BALT KEY BRIDGE  1800   73     120/  9/ 11 1015.1F
COVE POINT       1800   69     180/  9/  9 1016.1F
LEWISETTA        1800   73 74  150/  5/  6 1015.1F
SOLOMONS ISLAND  1800   70 66  140/  8/  9   N/A
PINEY POINT      1800          160/  8/  9   N/A

$$





USA.gov is the U.S. government's official web portal to all federal, state and local government web resources and services.